FW0633 Weather Reports


Display with metric or nautical units.
time (UTC)temp
F
wind
direction
speed
MPH
gust
MPH
rain 1hr
in
rain 24hr
in
rain mn
in
humidity
%
barometer
mb
20260902204505 85 233 5.0 13.0 0.00 0.00 0.00 36 1038.8
20260902203005 84 241 5.0 12.0 0.00 0.00 0.00 37 1038.8
20260902201527 85 237 5.0 17.0 0.00 0.00 0.00 39 1038.9
20260902200004 85 237 6.0 13.0 0.00 0.00 0.00 41 1039.0
20260902194526 85 249 5.0 18.0 0.00 0.00 0.00 40 1039.0
20260902193005 84 253 5.0 13.0 0.00 0.00 0.00 40 1039.0
20260902191505 84 225 4.0 20.0 0.00 0.00 0.00 41 1039.3
20260902190005 83 242 5.0 13.0 0.00 0.00 0.00 41 1039.4
20260902184505 83 237 4.0 13.0 0.00 0.00 0.00 42 1039.4
20260902183005 83 212 5.0 14.0 0.00 0.00 0.00 43 1039.7
20260902181525 83 208 3.0 8.0 0.00 0.00 0.00 43 1040.0
20260902180007 83 197 5.0 16.0 0.00 0.00 0.00 44 1040.1
20260902174527 82 212 4.0 11.0 0.00 0.00 0.00 43 1040.3
20260902173005 82 209 4.0 16.0 0.00 0.00 0.00 44 1040.4
20260902171504 82 215 4.0 11.0 0.00 0.00 0.00 43 1040.3
20260902170004 81 222 5.0 13.0 0.00 0.00 0.00 42 1040.2
20260902164504 80 209 4.0 11.0 0.00 0.00 0.00 43 1040.1
20260902163004 80 224 3.0 8.0 0.00 0.00 0.00 43 1040.1
20260902161505 79 222 3.0 11.0 0.00 0.00 0.00 45 1040.0
20260902160007 78 220 4.0 12.0 0.00 0.00 0.00 48 1039.8
20260902154504 77 220 3.0 10.0 0.00 0.00 0.00 49 1039.8
20260902153005 77 209 4.0 12.0 0.00 0.00 0.00 50 1039.7
20260902151505 76 225 3.0 11.0 0.00 0.00 0.00 53 1039.7
20260902150004 75 218 3.0 7.0 0.00 0.00 0.00 55 1039.8
20260902144504 74 205 3.0 10.0 0.00 0.00 0.00 57 1039.8
20260902143004 72 208 3.0 9.0 0.00 0.00 0.00 64 1039.8
20260902141526 71 209 2.0 7.0 0.00 0.00 0.00 68 1039.7
20260902140005 70 207 1.0 9.0 0.00 0.00 0.00 71 1039.6
20260902134505 68 216 1.0 5.0 0.00 0.00 0.00 74 1039.5
20260902133004 67 209 1.0 4.0 0.00 0.00 0.00 76 1039.4
20260902131504 67 220 0.0 2.0 0.00 0.00 0.00 76 1039.2
20260902130004 67 209 1.0 6.0 0.00 0.00 0.00 75 1039.0
20260902124504 67 198 1.0 5.0 0.00 0.00 0.00 76 1039.0
20260902123004 67 213 1.0 3.0 0.00 0.00 0.00 76 1038.9
20260902121525 67 214 0.0 3.0 0.00 0.00 0.00 75 1038.8
20260902120004 67 194 0.0 3.0 0.00 0.00 0.00 75 1038.7
20260902114504 68 191 1.0 4.0 0.00 0.00 0.00 74 1038.7
20260902113004 68 169 0.0 2.0 0.00 0.00 0.00 72 1038.8
20260902111504 68 139 0.0 3.0 0.00 0.00 0.00 72 1038.8
20260902110005 68 181 0.0 2.0 0.00 0.00 0.00 72 1038.9
20260902104525 68 174 0.0 1.0 0.00 0.00 0.00 72 1038.9
20260902103024 68 210 0.0 2.0 0.00 0.00 0.00 71 1039.0
20260902101503 69 199 0.0 2.0 0.00 0.00 0.00 71 1039.0
20260902100004 69 219 0.0 3.0 0.00 0.00 0.00 70 1039.1
20260902094505 69 209 0.0 2.0 0.00 0.00 0.00 71 1039.1
20260902093004 70 202 1.0 6.0 0.00 0.00 0.00 70 1039.2
20260902091524 70 200 1.0 4.0 0.00 0.00 0.00 69 1039.1
20260902090004 70 175 1.0 5.0 0.00 0.00 0.00 68 1039.3
20260902084503 70 204 1.0 3.0 0.00 0.00 0.00 68 1039.4
20260902083025 69 212 0.0 2.0 0.00 0.00 0.00 69 1039.5
20260902081503 69 205 0.0 2.0 0.00 0.00 0.00 68 1039.4
20260902080003 70 215 0.0 3.0 0.00 0.00 0.00 68 1039.4
20260902074525 69 212 1.0 3.0 0.00 0.00 0.00 68 1039.4
20260902073004 68 202 0.0 3.0 0.00 0.00 0.00 70 1039.2
20260902071524 67 0 0.0 0.0 0.00 0.00 0.00 73 1039.2
20260902070004 66 0 0.0 0.0 0.00 0.00 0.00 74 1039.2
20260902064504 66 0 0.0 0.0 0.00 0.00 0.00 75 1039.3
20260902063003 66 0 0.0 0.0 0.00 0.00 0.00 76 1039.4
20260902061524 65 0 0.0 0.0 0.00 0.00 0.00 77 1039.4
20260902060003 65 0 0.0 0.0 0.00 0.00 0.00 77 1039.6
20260902054524 65 272 0.0 1.0 0.00 0.00 0.00 76 1039.6
20260902053003 66 0 0.0 0.0 0.00 0.00 0.00 75 1039.6
20260902051503 66 0 0.0 0.0 0.00 0.00 0.00 73 1039.6
20260902050004 67 0 0.0 0.0 0.00 0.00 0.00 72 1039.7
20260902044503 68 0 0.0 0.0 0.00 0.00 0.00 71 1039.6
20260902043003 69 0 0.0 0.0 0.00 0.00 0.00 68 1039.4
20260902041506 70 0 0.0 0.0 0.00 0.00 0.00 64 1039.3
20260902040027 71 0 0.0 0.0 0.00 0.00 0.00 61 1039.2
20260902034506 72 173 0.0 1.0 0.00 0.00 0.00 60 1039.2
20260902033005 72 0 0.0 0.0 0.00 0.00 0.00 58 1039.0
20260902031505 73 122 0.0 1.0 0.00 0.00 0.00 57 1038.8
20260902030006 73 147 0.0 2.0 0.00 0.00 0.00 56 1038.4
20260902024505 74 212 0.0 2.0 0.00 0.00 0.00 56 1038.2
20260902023005 75 200 0.0 2.0 0.00 0.00 0.00 55 1038.3
20260902021505 75 216 0.0 3.0 0.00 0.00 0.00 53 1038.2
20260902020006 76 232 1.0 6.0 0.00 0.00 0.00 51 1037.8
20260902014526 77 233 2.0 5.0 0.00 0.00 0.00 49 1037.8
20260902013006 78 236 2.0 5.0 0.00 0.00 0.00 46 1037.8
20260902011505 81 236 2.0 5.0 0.00 0.00 0.00 42 1037.9
20260902010005 82 240 1.0 6.0 0.00 0.00 0.00 41 1038.0
20260902004505 81 252 3.0 8.0 0.00 0.00 0.00 40 1037.9
20260902003005 82 243 1.0 7.0 0.00 0.00 0.00 43 1037.9
20260902001505 83 245 3.0 9.0 0.00 0.00 0.00 42 1038.0
20260902000005 84 235 2.0 10.0 0.00 0.00 0.00 40 1038.0
20260901234506 84 246 3.0 9.0 0.00 0.00 0.00 40 1038.1
20260901233006 84 246 3.0 9.0 0.00 0.00 0.00 39 1038.2
20260901231505 85 246 3.0 8.0 0.00 0.00 0.00 37 1038.2
20260901230005 85 243 3.0 11.0 0.00 0.00 0.00 39 1038.3
20260901224505 84 181 4.0 12.0 0.00 0.00 0.00 42 1038.2
20260901223006 84 190 4.0 12.0 0.00 0.00 0.00 44 1038.3
20260901221526 84 154 5.0 12.0 0.00 0.00 0.00 43 1038.4
20260901220005 84 223 3.0 8.0 0.00 0.00 0.00 41 1038.5
20260901214505 83 156 5.0 15.0 0.00 0.00 0.00 43 1038.6
20260901213026 84 188 4.0 10.0 0.00 0.00 0.00 42 1038.8
20260901211505 84 176 3.0 8.0 0.00 0.00 0.00 44 1039.0
20260901210005 84 210 3.0 11.0 0.00 0.00 0.00 43 1039.2